Retour au catalogue

THOR ABLESTAR DEB

ActifLEO
NORAD 648·DEBRIS·🇺🇸 United States

Lancé Jun 29, 1961 depuis Cape Canaveral Space Force Station

Loading…

Prochains Passages (prochaines 24 heures)

TLE

FraisSource: Space-Track

Époque: Sep 14, 2026, 05:55 UTC

1 00648U 61015GZ  26257.24700236  .00000590  00000-0  78906-3 0  9994
2 00648  65.8728 176.6098 0198346 183.6461 337.9262 13.59710630211082

Suivez THOR ABLESTAR DEB en temps réel avec AllMySat

Download on the App Store